Home > Weather > Maastricht > Past weeks

Flag for Netherlands Past Weather in Maastricht, Netherlands — Yesterday and Last 2 Weeks

Now
52 °F

Overcast.


Feels Like: 49 °F
Forecast: 42 / 65 °F
Wind: 9 mph from Northwest

Location: Maastricht Airport Zuid Limburg

Current Time: May 24, 2016 at 12:11:48 PM

Latest Report: May 24, 2016 at 11:25 AM


Visibility: N/A

Pressure: 30.04 "Hg

Humidity: 77%

Dew Point: 45 °F

Location of MaastrichtLocation

Past Weather in Maastricht — Graph

°F

Maastricht Temperature Yesterday

Maximum temperature yesterday: 57 °F (at 12:25 AM)
Minimum temperature yesterday: 50 °F (at 7:25 AM)
Average temperature yesterday: 53 °F

High & Low Weather Summary for the Past Weeks

 TemperatureHumidityPressure
High75 °F (May 9, 3:25 PM)100% (May 19, 1:25 AM)30.15 "Hg (May 19, 1:25 AM)
Low41 °F (May 15, 4:55 AM)33% (May 13, 6:25 PM)29.47 "Hg (May 12, 4:55 PM)
Average58 °F72%29.87 "Hg
* Reported May 9 10:25 AM — May 24 10:25 AM, Maastricht, Weather by CustomWeather, © 2016

Note: Actual official high and low records may vary slightly from our data, if they occured in-between our weather recording intervals... More about our weather records

Advertising

Maastricht Weather History for the Previous 24 Hours

Scroll right to see more
 ConditionsComfort  
Time TempWeatherWind HumidityBarometerVisibility
10:25 AM
Tue, May 24
52 °FMostly cloudy.9 mph77%30.04 "HgN/A
9:55 AM50 °FMostly cloudy.9 mph88%30.04 "HgN/A
9:25 AM50 °FCloudy.10 mph82%30.04 "HgN/A
8:55 AM52 °FMore clouds than sun.8 mph82%30.07 "HgN/A
8:25 AM50 °FOvercast.8 mph88%30.04 "HgN/A
7:55 AM50 °FOvercast.6 mph88%30.07 "HgN/A
7:25 AM50 °FOvercast.6 mph88%30.07 "HgN/A
6:55 AM48 °FMostly cloudy.7 mph87%30.07 "HgN/A
6:25 AM48 °FOvercast.8 mph87%30.07 "HgN/A
5:55 AM48 °FMostly cloudy.8 mph94%30.04 "HgN/A
5:25 AM50 °FMostly cloudy.7 mph88%30.04 "HgN/A
4:55 AM50 °FMostly cloudy.7 mph94%30.04 "HgN/A
4:25 AM50 °FMostly cloudy.8 mph94%30.04 "Hg6 mi
3:55 AM50 °FOvercast.8 mph94%30.04 "Hg6 mi
3:25 AM50 °FPassing clouds.9 mph94%30.04 "Hg6 mi
2:55 AM50 °FMostly cloudy.8 mph94%30.04 "Hg6 mi
2:25 AM50 °FMostly cloudy.7 mph94%30.04 "Hg6 mi
1:55 AM50 °FOvercast.8 mph94%30.04 "HgN/A
1:25 AM50 °FPassing clouds.8 mph100%30.04 "Hg6 mi
12:55 AM52 °FPassing clouds.7 mph94%30.04 "Hg5 mi
12:25 AM52 °FPassing clouds.6 mph94%30.04 "Hg5 mi
11:55 PM
Mon, May 23
52 °FPartly cloudy.9 mph94%30.04 "Hg6 mi
11:25 PM52 °FMostly cloudy.7 mph94%30.04 "Hg5 mi
10:55 PM52 °FPartly cloudy.6 mph94%30.04 "HgN/A
10:25 PM52 °FBroken clouds.9 mph94%30.04 "HgN/A
9:55 PM52 °FDrizzle. Broken clouds.8 mph94%30.01 "Hg6 mi
9:25 PM52 °FDrizzle. Broken clouds.10 mph94%30.01 "HgN/A
8:55 PM52 °FDrizzle. Broken clouds.10 mph94%30.01 "Hg4 mi
8:25 PM52 °FDrizzle. Mostly cloudy.6 mph94%30.01 "Hg2 mi
7:55 PM52 °FLight rain. Mostly cloudy.7 mph94%30.01 "Hg3 mi
7:25 PM52 °FSprinkles. Partly sunny.5 mph100%29.98 "Hg3 mi
6:55 PM52 °FRain. Broken clouds.5 mph94%29.98 "Hg3 mi
6:25 PM54 °FDrizzle. More clouds than sun.7 mph88%29.98 "HgN/A
5:55 PM54 °FMostly cloudy.8 mph88%29.98 "HgN/A
5:25 PM54 °FLight rain. Mostly cloudy.8 mph88%29.95 "HgN/A
4:55 PM54 °FLight rain. Partly sunny.10 mph88%29.95 "HgN/A
4:25 PM54 °FCloudy.10 mph88%29.95 "HgN/A
3:55 PM54 °FBroken clouds.13 mph88%29.95 "HgN/A
3:25 PM54 °FMore clouds than sun.12 mph88%29.95 "HgN/A
2:55 PM52 °FDrizzle. Mostly cloudy.12 mph88%29.95 "Hg4 mi
2:25 PM52 °FDrizzle. Cloudy.10 mph94%29.92 "HgN/A
1:55 PM54 °FDrizzle. Broken clouds.9 mph88%29.92 "Hg3 mi
1:25 PM52 °FDrizzle. Broken clouds.9 mph100%29.89 "Hg2 mi
12:55 PM52 °FDrizzle. Cloudy.7 mph100%29.89 "Hg3 mi
12:25 PM52 °FDrizzle. Cloudy.8 mph94%29.89 "Hg6 mi
Weather by CustomWeather, © 2016

See weather overviewHow to use our weather pages